This demonstration page uses our WeatherBlox Daily Observations layout. Learn more.

Left ArrowRight Arrow

44.89941, -97.11507

Hourly Observations for January 18, 2016

Temp ( °F °C ) Dew Point ( °F °C ) Humidity (%) Winds ( mph kmh ) Pressure ( in mb ) Visibility ( mi km ) Precip ( " mm )
12:53 am 00:53 Cloudy 0 -17.8 -8 -22.2 69 69 W 9 15 30.38 1029 10 16 0.00 0.00
1:31 am 01:31 Cloudy 0 -17.8 -7 -21.7 72 72 W 9 15 30.42 1030 10 16 0.00 0.00
1:53 am 01:53 Cloudy 0 -17.8 -7 -21.7 72 72 WSW 9 15 30.37 1028 10 16 0.00 0.00
2:53 am 02:53 Cloudy 0 -17.8 -7 -21.7 72 72 W 8 13 30.37 1028 10 16 0.00 0.00
3:53 am 03:53 Cloudy 1 -17.2 -5 -20.6 75 75 W 5 7 30.35 1028 10 16 0.00 0.00
4:53 am 04:53 Cloudy 2 -16.7 -5 -20.6 72 72 W 6 9 30.36 1028 10 16 0.00 0.00
5:53 am 05:53 Cloudy 2 -16.7 -4 -20 76 76 W 5 7 30.36 1028 10 16 0.00 0.00
6:53 am 06:53 Cloudy 2 -16.7 -3 -19.4 80 80 W 5 7 30.36 1028 10 16 0.00 0.00
7:53 am 07:53 Cloudy 2 -16.7 -3 -19.4 80 80 NW 5 7 30.38 1029 10 16 0.00 0.00
8:53 am 08:53 Cloudy 3 -16.1 -3 -19.4 76 76 W 3 6 30.38 1029 10 16 0.00 0.00
9:53 am 09:53 Cloudy 4 -15.6 -3 -19.4 73 73 Calm 30.37 1029 10 16 0.00 0.00
10:53 am 10:53 Cloudy 5 -15 -2 -18.9 72 72 Calm 30.37 1029 10 16 0.00 0.00
11:53 am 11:53 Cloudy 5 -15 -2 -18.9 72 72 W 6 9 30.37 1029 8 13 0.00 0.00
12:53 pm 12:53 Mostly Cloudy 5 -15 -1 -18.3 76 76 Calm 30.34 1028 10 16 0.00 0.00
1:07 pm 13:07 Partly Cloudy 5 -15 -1 -18.3 76 76 Calm 30.42 1030 10 16 0.00 0.00
1:20 pm 13:20 Mostly Cloudy 5 -15 -1 -18.3 76 76 SW 3 6 30.42 1030 9 14 0.00 0.00
1:26 pm 13:26 Mostly Cloudy 6 -14.4 -1 -18.3 73 73 Calm 30.36 1028 9 14 0.00 0.00
1:38 pm 13:38 Hazy 7 -13.9 -2 -18.9 66 66 Calm 30.36 1028 6 10 0.00 0.00
1:53 pm 13:53 Mostly Sunny 7 -13.9 -1 -18.3 70 70 Calm 30.31 1027 10 16 0.00 0.00
2:44 pm 14:44 Mostly Cloudy 6 -14.4 -1 -18.3 73 73 SW 6 9 30.36 1028 10 16 0.00 0.00
2:53 pm 14:53 Cloudy 6 -14.4 -1 -18.3 73 73 SSW 6 9 30.32 1027 10 16 0.00 0.00
3:53 pm 15:53 Mostly Cloudy 6 -14.4 -2 -18.9 69 69 S 3 6 30.31 1026 10 16 0.00 0.00
4:53 pm 16:53 Cloudy 6 -14.4 -2 -18.9 69 69 S 5 7 30.32 1027 10 16 0.00 0.00
5:21 pm 17:21 Partly Cloudy 5 -15 -3 -19.4 69 69 SSE 3 6 30.42 1030 10 16 0.00 0.00
5:53 pm 17:53 Clear 5 -15 -3 -19.4 69 69 ESE 3 6 30.33 1027 10 16 0.00 0.00
6:53 pm 18:53 Clear 2 -16.7 -4 -20 76 76 E 6 9 30.35 1028 10 16 0.00 0.00
7:53 pm 19:53 Clear 1 -17.2 -5 -20.6 75 75 E 6 9 30.35 1028 10 16 0.00 0.00
8:53 pm 20:53 Clear 1 -17.2 -5 -20.6 75 75 E 6 9 30.35 1028 10 16 0.00 0.00
9:53 pm 21:53 Clear 2 -16.7 -4 -20 76 76 SE 5 7 30.35 1028 10 16 0.00 0.00
10:53 pm 22:53 Clear 2 -16.7 -4 -20 76 76 SSE 8 13 30.37 1028 10 16 0.00 0.00
11:53 pm 23:53 Mostly Clear 3 -16.1 -3 -19.4 76 76 SSE 7 11 30.37 1029 10 16 0.00 0.00

Powered by AerisWeather